Weather History for New River MCAS, NC

Change the Weather History Date:

Tuesday, October 4, 2011

  Actual Average Record
Temperature  
Mean Temperature 60 °F -  
Max Temperature 72 °F 76 °F 87 °F (2002)
Min Temperature 48 °F 56 °F 48 °F (2011)
Degree Days  
Heating Degree Days 6    
Growing Degree Days 10 (Base 50)    
Moisture  
Dew Point 47 °F    
Average Humidity 70    
Maximum Humidity 97    
Minimum Humidity 39    
Precipitation  
Precipitation 0.00 in - - ()
Sea Level Pressure  
Sea Level Pressure 30.18 in    
Wind  
Wind Speed 5 mph (NW)    
Max Wind Speed 14 mph    
Max Gust Speed 21 mph    
Visibility 10 miles    
Events      
Averages and records for this station are not official NWS values.
T = Trace of Precipitation, MM = Missing Value Source: NWS Daily Summary

Daily Weather History Graph

Daily Weather History Graph

Search for Another Location

Airport:

Trip Planner

Search our weather history database for the weather conditions in past years. The results will help you decide how hot, cold, wet, or windy it might be!

Date:

Astronomy

Oct. 04, 2011 Rise Set
Actual Time 7:06 AM EDT 6:50 PM EDT
Civil Twilight 6:41 AM EDT 7:15 PM EDT
Nautical Twilight 6:12 AM EDT 7:44 PM EDT
Astronomical Twilight 5:42 AM EDT 8:13 PM EDT
Moon 2:35 PM EDT (10/4) 12:04 AM EDT (10/4)
Length of Visible Light 12h 33m
Length of Day
11h 43m
First Quarter, 56% of the Moon is Illuminated
Oct 4
First Quarter
Oct 11
Full
Oct 19
Last Quarter
Oct 26
New
Nov 2
First Quarter

Hourly Weather History & Observations

Time (EDT) Temp. Dew Point Humidity Pressure Visibility Wind Dir Wind Speed Gust Speed Precip Events Conditions
12:56 AM 48.9 °F 48.0 °F 97% 30.16 in 10.0 mi Calm Calm - N/A   Partly Cloudy
1:56 AM 48.9 °F 48.0 °F 97% 30.15 in 10.0 mi Calm Calm - N/A   Mostly Cloudy
2:56 AM 51.1 °F 46.9 °F 86% 30.16 in 10.0 mi West 8.1 mph - N/A   Mostly Cloudy
3:56 AM 51.1 °F 46.0 °F 83% 30.15 in 10.0 mi West 3.5 mph - N/A   Clear
4:56 AM 48.0 °F 46.0 °F 93% 30.15 in 10.0 mi West 5.8 mph - N/A   Clear
5:56 AM 50.0 °F 46.0 °F 86% 30.17 in 10.0 mi WNW 8.1 mph - N/A   Clear
6:56 AM 50.0 °F 45.0 °F 83% 30.19 in 10.0 mi NW 9.2 mph - N/A   Clear
7:56 AM 52.0 °F 45.0 °F 77% 30.20 in 10.0 mi NW 9.2 mph - N/A   Clear
8:56 AM 55.9 °F 46.0 °F 69% 30.21 in 10.0 mi NW 10.4 mph - N/A   Clear
9:56 AM 61.0 °F 46.9 °F 60% 30.22 in 10.0 mi NNW 9.2 mph 17.3 mph N/A   Clear
10:56 AM 64.0 °F 48.0 °F 56% 30.22 in 10.0 mi NNW 9.2 mph - N/A   Clear
11:56 AM 66.9 °F 46.9 °F 49% 30.21 in 10.0 mi NW 13.8 mph 19.6 mph N/A   Clear
12:56 PM 68.0 °F 48.0 °F 49% 30.20 in 10.0 mi NNW 8.1 mph 18.4 mph N/A   Clear
1:56 PM 70.0 °F 46.9 °F 44% 30.17 in 10.0 mi North 13.8 mph 20.7 mph N/A   Clear
2:56 PM 70.0 °F 46.0 °F 42% 30.17 in 10.0 mi NW 8.1 mph - N/A   Partly Cloudy
3:56 PM 71.1 °F 45.0 °F 39% 30.16 in 10.0 mi WNW 10.4 mph - N/A   Clear
4:56 PM 71.1 °F 45.0 °F 39% 30.16 in 10.0 mi North 9.2 mph 17.3 mph N/A   Partly Cloudy
5:56 PM 69.1 °F 45.0 °F 42% 30.17 in 8.0 mi NNW 10.4 mph - N/A   Clear
6:56 PM 64.9 °F 48.0 °F 54% 30.18 in 10.0 mi NNW 4.6 mph - N/A   Clear
7:56 PM 64.0 °F 48.9 °F 58% 30.19 in 9.0 mi North 5.8 mph - N/A   Clear
8:56 PM 54.0 °F 52.0 °F 93% 30.20 in 10.0 mi Calm Calm - N/A   Clear
9:56 PM 53.1 °F 51.1 °F 93% 30.21 in 10.0 mi Calm Calm - N/A   Clear
10:56 PM 52.0 °F 50.0 °F 93% 30.22 in 10.0 mi Calm Calm - N/A   Clear
11:56 PM 51.1 °F 50.0 °F 96% 30.22 in 10.0 mi Calm Calm - N/A   Clear